Location: Austin
(30.3000°N, 97.7500°W)
Time: 11:31:11
(UTC-05:00)

SPOT 3 Rocket - Pass Details

Date: 26 May 2023
Orbit: 777 x 794 km, 98.6° (Epoch: 30 May)

Event Time Altitude Azimuth Distance (km) Brightness Sun altitude
Exits shadow 23:10:47 72° 324° (NW) 816 3.6 -28.8°
Drops below altitude 10° 23:15:26 10° 346° (NNW) 2,330 6.8 -29.4°
Sets 23:17:45 0° 347° (NNW) 3,261 7.8 -29.7°
